Voltar ao catálogo

STARLINK-34092

AtivoComunicaçõesVLEO
NORAD 63904·PAYLOAD·🇺🇸 United States

Lançado May 10, 2025 de Cape Canaveral Space Force Station

Loading…

Próximas Passagens (próximas 24 horas)

TLE

AtualizadoSource: CelesTrak SupGP

Época: Sep 14, 2026, 21:03 UTC

1 63904C 25095Q   26257.87756944  .00002476  00000+0  89674-4 0  2578
2 63904  43.0008 188.0509 0001365 262.9908 273.4314 15.27576982    18

Acompanhe STARLINK-34092 em tempo real com AllMySat

Download on the App Store